Tracking 29967 objects as of 5-Dec-2024
HD Live streaming from Space Station
objects crossing your sky now

STARLINK-31441

Track STARLINK-31441 now!
10-day predictions
STARLINK-31441 is classified as:


NORAD ID: 60091
Int'l Code: 2024-117A
Perigee: 481.3 km
Apogee: 483.2 km
Inclination: 53.2 °
Period: 94.1 minutes
Semi major axis: 6853 km
RCS: Unknown
Launch date: June 23, 2024
Source: United States (US)
Launch site: AIR FORCE EASTERN TEST RANGE (AFETR)
Your satellite tracking list
Your tracking list is empty




NASA's NSSDC Master Catalog

Two Line Element Set (TLE):
1 60091U 24117A   24340.37021735  .00020489  00000-0  70100-3 0  9996
2 60091  53.1597  10.5443 0001394 104.5030 255.6126 15.30245942 26566
Source of the keplerian elements: AFSPC